GW0787 Weather Reports


Display with metric or nautical units.
time (UTC)temp
F
wind
direction
speed
MPH
gust
MPH
rain 1hr
in
rain 24hr
in
rain mn
in
humidity
%
barometer
mb
20260906211517 66 231 1.0 4.0 0.00 0.03 0.00 53 1015.0
20260906210028 67 294 1.0 5.0 0.00 0.03 0.00 48 1014.9
20260906204517 66 116 1.0 6.0 0.00 0.03 0.00 50 1015.0
20260906203011 65 253 3.0 6.0 0.00 0.03 0.00 59 1015.1
20260906201510 66 210 0.0 1.0 0.00 0.03 0.00 55 1015.2
20260906200008 66 210 0.0 3.0 0.00 0.03 0.00 55 1015.3
20260906194508 65 204 1.0 5.0 0.00 0.03 0.00 59 1015.4
20260906193100 63 205 0.0 2.0 0.00 0.03 0.00 65 1015.6
20260906191558 62 208 0.0 0.0 0.00 0.03 0.00 68 1015.7
20260906190053 61 208 0.0 0.0 0.00 0.03 0.00 66 1015.9
20260906184550 60 208 0.0 0.0 0.00 0.03 0.00 66 1016.2
20260906183046 59 207 0.0 3.0 0.00 0.03 0.00 69 1016.2
20260906181545 57 206 1.0 3.0 0.00 0.03 0.00 77 1016.5
20260906180037 54 180 0.0 2.0 0.00 0.03 0.00 84 1016.8
20260906174535 52 179 0.0 1.0 0.00 0.03 0.00 90 1016.9
20260906173028 51 179 0.0 2.0 0.00 0.03 0.00 91 1017.2
20260906171524 49 179 0.0 1.0 0.00 0.03 0.00 91 1017.2
20260906170020 47 179 0.0 0.0 0.00 0.03 0.00 91 1017.5
20260906164516 46 180 0.0 1.0 0.00 0.03 0.00 91 1017.8
20260906163020 44 180 0.0 2.0 0.00 0.03 0.00 91 1017.8
20260906161511 43 180 0.0 2.0 0.00 0.03 0.00 91 1018.1
20260906160028 41 180 0.0 0.0 0.00 0.03 0.00 91 1018.1
20260906154505 40 180 0.0 0.0 0.00 0.03 0.00 91 1018.2
20260906153003 40 180 0.0 0.0 0.00 0.03 0.00 91 1018.3
20260906151606 40 179 0.0 0.0 0.00 0.03 0.00 91 1018.3
20260906150058 40 180 0.0 0.0 0.00 0.03 0.00 91 1018.4
20260906144601 40 179 0.0 0.0 0.00 0.03 0.00 91 1018.6
20260906143110 39 180 0.0 0.0 0.00 0.03 0.00 91 1018.6
20260906141555 39 180 0.0 0.0 0.00 0.03 0.00 91 1018.6
20260906140053 39 180 0.0 0.0 0.00 0.03 0.00 91 1018.6
20260906134553 38 180 0.0 0.0 0.00 0.03 0.00 91 1018.8
20260906133055 38 180 0.0 0.0 0.00 0.03 0.00 91 1018.9
20260906131556 38 179 0.0 0.0 0.00 0.03 0.00 91 1018.8
20260906130048 37 180 0.0 0.0 0.00 0.03 0.00 91 1019.0
20260906124547 37 180 0.0 0.0 0.00 0.03 0.00 91 1019.1
20260906123043 38 179 0.0 0.0 0.00 0.03 0.00 91 1019.1
20260906121545 38 180 0.0 0.0 0.00 0.03 0.00 91 1019.1
20260906120040 38 180 0.0 0.0 0.00 0.03 0.00 91 1019.1
20260906114538 39 180 0.0 0.0 0.00 0.03 0.00 91 1019.1
20260906113044 39 180 0.0 0.0 0.00 0.03 0.00 91 1019.1
20260906111539 39 180 0.0 0.0 0.00 0.03 0.00 91 1019.2
20260906110034 39 180 0.0 0.0 0.00 0.03 0.00 91 1019.2
20260906104532 40 180 0.0 0.0 0.00 0.03 0.00 91 1019.3
20260906103030 40 180 0.0 0.0 0.00 0.03 0.00 91 1019.4
20260906101528 41 180 0.0 0.0 0.00 0.03 0.00 91 1019.4
20260906100026 41 179 0.0 0.0 0.00 0.03 0.00 91 1019.3
20260906094532 41 180 0.0 0.0 0.00 0.03 0.00 91 1019.3
20260906093023 42 179 0.0 0.0 0.00 0.03 0.00 91 1019.3
20260906091527 42 179 0.0 0.0 0.00 0.03 0.00 91 1019.2
20260906090020 42 179 0.0 0.0 0.00 0.03 0.00 91 1019.2
20260906084524 43 179 0.0 0.0 0.00 0.03 0.00 91 1019.1
20260906083021 43 180 0.0 0.0 0.00 0.03 0.00 90 1019.2
20260906081529 44 179 0.0 0.0 0.00 0.03 0.00 90 1019.3
20260906080010 44 180 0.0 0.0 0.00 0.03 0.00 91 1019.3
20260906074508 45 180 0.0 0.0 0.00 0.03 0.00 91 1019.4
20260906073007 45 180 0.0 0.0 0.00 0.03 0.00 91 1019.4
20260906071503 45 180 0.0 0.0 0.00 0.03 0.00 91 1019.5
20260906070002 46 180 0.0 0.0 0.00 0.03 0.00 91 1019.6
20260906064604 46 180 0.0 0.0 0.00 0.03 0.03 90 1019.4
20260906063103 47 180 0.0 0.0 0.00 0.03 0.03 90 1019.4
20260906061600 47 179 0.0 0.0 0.00 0.03 0.03 91 1019.3
20260906060059 47 180 0.0 0.0 0.00 0.03 0.03 90 1019.2
20260906054559 47 180 0.0 1.0 0.00 0.03 0.03 90 1019.2
20260906053058 48 180 0.0 0.0 0.00 0.03 0.03 90 1019.3
20260906051556 48 179 1.0 2.0 0.00 0.03 0.03 90 1019.2
20260906050114 48 179 0.0 0.0 0.00 0.03 0.03 90 1019.3
20260906044556 49 179 0.0 0.0 0.00 0.03 0.03 89 1019.3
20260906043106 49 179 0.0 1.0 0.00 0.03 0.03 90 1019.2
20260906041553 50 179 0.0 0.0 0.00 0.03 0.03 89 1019.1
20260906040052 50 179 0.0 1.0 0.00 0.03 0.03 89 1019.0
20260906034553 51 179 0.0 1.0 0.00 0.03 0.03 88 1019.0
20260906033051 51 179 0.0 1.0 0.00 0.03 0.03 87 1018.9
20260906031555 52 179 0.0 0.0 0.00 0.03 0.03 87 1018.6
20260906030100 52 179 0.0 0.0 0.00 0.03 0.03 88 1018.6
20260906024549 53 179 0.0 0.0 0.00 0.03 0.03 88 1018.6
20260906023052 53 179 0.0 0.0 0.00 0.03 0.03 88 1018.5
20260906021606 54 179 0.0 0.0 0.00 0.03 0.03 88 1018.3
20260906020048 55 179 0.0 0.0 0.00 0.03 0.03 85 1018.2
20260906014547 56 179 0.0 0.0 0.00 0.03 0.03 85 1018.1
20260906013049 56 179 0.0 0.0 0.00 0.03 0.03 85 1018.1
20260906011546 56 179 0.0 0.0 0.01 0.03 0.03 83 1017.9
20260906010044 56 179 0.0 1.0 0.01 0.03 0.03 85 1018.1
20260906004544 55 180 1.0 3.0 0.02 0.03 0.03 87 1018.1
20260906003042 56 183 0.0 3.0 0.02 0.03 0.03 83 1017.7
20260906001542 57 181 1.0 3.0 0.02 0.02 0.02 82 1017.9
20260906000041 58 185 0.0 2.0 0.02 0.02 0.02 77 1018.2
20260905234551 60 234 0.0 3.0 0.01 0.01 0.01 75 1018.1
20260905233040 63 178 0.0 5.0 0.01 0.01 0.01 61 1018.0
20260905231539 66 208 3.0 9.0 0.00 0.00 0.00 46 1017.7
20260905230038 70 22 2.0 6.0 0.00 0.00 0.00 42 1017.5
20260905224540 69 292 1.0 4.0 0.00 0.00 0.00 41 1017.6
20260905223035 69 241 1.0 3.0 0.00 0.00 0.00 40 1017.8
20260905221527 66 218 2.0 4.0 0.00 0.00 0.00 48 1018.1
20260905220029 65 228 0.0 2.0 0.00 0.00 0.00 47 1018.4
20260905214525 66 225 0.0 2.0 0.00 0.00 0.00 50 1018.5
20260905213023 65 224 1.0 4.0 0.00 0.00 0.00 54 1018.6